Weather History for Pecs, Hungary

Change the Weather History Date:

Thursday, January 30, 2014

  Actual Average Record
Temperature  
Mean Temperature 22 °F -  
Max Temperature 30 °F 41 °F - ()
Min Temperature 14 °F 29 °F - ()
Degree Days  
Heating Degree Days 43    
Moisture  
Dew Point 22 °F    
Average Humidity 88    
Maximum Humidity 93    
Minimum Humidity 78    
Precipitation  
Precipitation 0.01 in 0.04 in - ()
Sea Level Pressure  
Sea Level Pressure 30.08 in    
Wind  
Wind Speed 8 mph ()    
Max Wind Speed 18 mph    
Max Gust Speed -    
Visibility 3.3 miles    
Events Fog , Rain    
T = Trace of Precipitation, MM = Missing Value Source: Averaged Metar Reports

Daily Weather History Graph

Daily Weather History Graph

Search for Another Location

Airport:

Trip Planner

Search our weather history database for the weather conditions in past years. The results will help you decide how hot, cold, wet, or windy it might be!

Date:

Astronomy

Jan. 30, 2014 Rise Set
Actual Time 7:11 AM CET 4:49 PM CET
Civil Twilight 6:39 AM CET 5:21 PM CET
Nautical Twilight 6:03 AM CET 5:57 PM CET
Astronomical Twilight 5:28 AM CET 6:32 PM CET
Moon 6:22 AM CET (1/30) 4:41 PM CET (1/30)
Length of Visible Light 10h 41m
Length of Day
9h 37m
Waning Crescent, 0% of the Moon is Illuminated
Jan 30
Waning Crescent
Jan 30
New
Feb 6
First Quarter
Feb 15
Full
Feb 22
Last Quarter

Hourly Weather History & Observations

Time (CET) Temp. Windchill Dew Point Humidity Pressure Visibility Wind Dir Wind Speed Gust Speed Precip Events Conditions
12:00 AM 18 °F - 16 °F 89% 30.03 in 1 mi ESE 4.5 mph - -   Mist
12:45 AM 15.8 °F 10.2 °F 14.0 °F 93% 29.98 in 1.2 mi ESE 3.5 mph - N/A   Mist
1:00 AM 15 °F - 13 °F 89% 30.05 in 1 mi ESE 4.5 mph - -   Mist
1:45 AM 17.6 °F 12.3 °F 15.8 °F 93% 30.01 in 1.0 mi East 3.5 mph - N/A   Mostly Cloudy
2:00 AM 17 °F - 16 °F 93% 30.07 in 1 mi East 2.2 mph - -   Mist
2:39 AM 19.4 °F 14.3 °F 17.6 °F 93% 30.09 in 0.0 mi ENE 3.5 mph - N/A Fog Light Freezing Fog
2:45 AM 19.4 °F 12.8 °F 17.6 °F 93% 30.04 in 0.0 mi East 4.6 mph - N/A Fog Light Freezing Fog
3:00 AM 20 °F - 18 °F 88% 30.08 in 0 mi East 4.5 mph - - Fog Heavy Fog
3:45 AM 19.4 °F 11.5 °F 17.6 °F 93% 30.04 in 0.0 mi East 5.8 mph - N/A Fog Light Freezing Fog
4:00 AM 19 °F - 17 °F 91% 30.08 in 0 mi East 4.5 mph - - Fog Heavy Fog
4:45 AM 21.2 °F 14.9 °F 19.4 °F 93% 30.04 in 0.0 mi ENE 4.6 mph - N/A Fog Light Freezing Fog
5:00 AM 20 °F - 19 °F 93% 30.08 in 0 mi ENE 4.5 mph - - Fog Heavy Fog
5:15 AM 19.4 °F 12.8 °F 17.6 °F 93% 30.04 in 0.0 mi East 4.6 mph - N/A Fog Light Freezing Fog
5:45 AM 21.2 °F 13.6 °F 19.4 °F 93% 30.01 in 0.4 mi East 5.8 mph - N/A Fog Light Freezing Fog
6:00 AM 20 °F - 19 °F 93% 30.06 in 0 mi East 6.7 mph - - Fog Fog
6:00 AM - - - N/A% - 0.4 mi Variable 3.5 mph - N/A Fog Light Freezing Fog
6:15 AM 19.4 °F 10.4 °F 17.6 °F 93% 30.01 in 0.3 mi East 6.9 mph - N/A Fog Light Freezing Fog
6:45 AM 19.4 °F 11.5 °F 17.6 °F 93% 30.04 in 0.4 mi East 5.8 mph - N/A Fog Light Freezing Fog
6:55 AM 19.4 °F 11.5 °F 17.6 °F 93% 30.09 in 0.6 mi East 5.8 mph - N/A Fog Light Freezing Fog
7:00 AM 19 °F - 17 °F 86% 30.08 in 0 mi East 6.7 mph - - Fog Fog
7:15 AM 19.4 °F 11.5 °F 17.6 °F 93% 30.04 in 0.6 mi East 5.8 mph - N/A Fog Light Freezing Fog
7:20 AM 19.4 °F 11.5 °F 17.6 °F 93% 30.09 in 0.8 mi East 5.8 mph - N/A   Overcast
7:45 AM 19.4 °F 11.5 °F 17.6 °F 93% 30.04 in 0.9 mi East 5.8 mph - N/A   Mostly Cloudy
8:00 AM 19 °F - 17 °F 91% 30.10 in 1 mi East 6.7 mph - - Fog Light Fog
8:03 AM 19.4 °F 8.6 °F 17.6 °F 93% 30.09 in 1.2 mi East 9.2 mph - N/A   Overcast
8:15 AM 19.4 °F 9.5 °F 17.6 °F 93% 30.04 in 1.7 mi East 8.1 mph - N/A   Overcast
8:32 AM 21.2 °F 11.7 °F 19.4 °F 93% 30.12 in 1.7 mi East 8.1 mph - N/A   Overcast
8:45 AM 21.2 °F 12.6 °F 19.4 °F 93% 30.04 in 1.7 mi East 6.9 mph - N/A   Mostly Cloudy
9:00 AM - - - N/A% - 3.1 mi East 11.5 mph - N/A   Overcast
9:15 AM 21.2 °F 11.7 °F 19.4 °F 93% 30.12 in - East 8.1 mph - N/A   Mostly Cloudy
9:45 AM 21.2 °F 11.7 °F 19.4 °F 93% 30.06 in 2.2 mi ENE 8.1 mph - N/A   Mostly Cloudy
10:00 AM 22 °F - 20 °F 89% 30.11 in 2 mi ENE 8.9 mph - -   Mist
10:15 AM 23.0 °F 13.1 °F 21.2 °F 93% 30.06 in 2.2 mi East 9.2 mph - N/A   Mostly Cloudy
10:45 AM 23.0 °F 12.4 °F 21.2 °F 93% 30.06 in 2.8 mi East 10.4 mph - N/A   Mostly Cloudy
11:00 AM 23 °F - 21 °F 90% 30.12 in 3 mi East 11.2 mph - -   Mist
11:13 AM 24.8 °F 14.0 °F 23.0 °F 93% 30.12 in 3.1 mi East 11.5 mph - N/A   Overcast
11:15 AM 24.8 °F 14.0 °F 23.0 °F 93% 30.06 in 3.1 mi East 11.5 mph - N/A   Overcast
11:45 AM 24.8 °F 13.4 °F 23.0 °F 93% 30.06 in 3.7 mi ENE 12.7 mph - N/A   Mostly Cloudy
12:00 PM 25 °F - 24 °F 93% 30.11 in 4 mi ENE 11.2 mph - -   Partly Cloudy
12:00 PM - - - N/A% - 3.7 mi East 12.7 mph - N/A   Overcast
12:15 PM 26.6 °F 14.7 °F 24.8 °F 93% 30.06 in 4.3 mi East 15.0 mph - N/A   Mostly Cloudy
12:45 PM 28.4 °F 18.0 °F 26.6 °F 93% 30.06 in 3.7 mi East 12.7 mph - N/A   Mostly Cloudy
1:00 PM 28 °F - 26 °F 87% 30.09 in 4 mi East 13.4 mph - -   Partly Cloudy
1:15 PM 28.4 °F 18.0 °F 24.8 °F 86% 30.06 in 3.7 mi East 12.7 mph - N/A   Overcast
1:45 PM 30.2 °F 20.2 °F 26.6 °F 86% 30.06 in 5.0 mi East 12.7 mph - N/A   Overcast
1:54 PM 30.2 °F 18.9 °F 26.6 °F 86% 30.09 in 5.0 mi East 16.1 mph - N/A Rain Light Freezing Rain
2:00 PM 29 °F - 26 °F 83% 30.09 in 5 mi East 13.4 mph - -   Partly Cloudy
2:10 PM 30.2 °F 19.3 °F 26.6 °F 86% 30.09 in 5.0 mi East 15.0 mph - N/A   Overcast
2:15 PM 30.2 °F 19.3 °F 26.6 °F 86% 30.06 in 5.0 mi East 15.0 mph - N/A   Overcast
2:45 PM 30.2 °F 18.1 °F 26.6 °F 86% 30.04 in 6.2 mi East 18.4 mph - N/A   Overcast
3:00 PM 30 °F - 26 °F 79% 30.08 in 6 mi East 17.9 mph - - Rain Light Freezing Drizzle
3:00 PM - - - N/A% - 6.2 mi East 17.3 mph - N/A   Overcast
3:15 PM 30.2 °F 19.3 °F 26.6 °F 86% 30.06 in 6.2 mi East 15.0 mph - N/A   Mostly Cloudy
3:45 PM 30.2 °F 19.8 °F 26.6 °F 86% 30.06 in - East 13.8 mph - N/A   Clear
4:00 PM 30 °F - 26 °F 78% 30.11 in 6 mi East 13.4 mph - -   Partly Cloudy
4:15 PM 30.2 °F 19.3 °F 24.8 °F 80% 30.06 in - East 15.0 mph - N/A   Clear
4:28 PM 28.4 °F 16.6 °F 24.8 °F 86% 30.09 in 6.2 mi East 16.1 mph - N/A Rain Light Freezing Rain
4:43 PM 28.4 °F 15.8 °F 24.8 °F 86% 30.09 in - East 18.4 mph - N/A   Clear
4:45 PM 28.4 °F 15.8 °F 24.8 °F 86% 30.04 in - East 18.4 mph - N/A   Clear
5:00 PM 29 °F - 25 °F 79% 30.09 in 7 mi East 17.9 mph - - Rain Light Freezing Drizzle
5:14 PM 28.4 °F 17.5 °F 24.8 °F 86% 30.06 in - East 13.8 mph - N/A   Unknown
5:15 PM 28.4 °F 18.0 °F 24.8 °F 86% 30.06 in 6.2 mi East 12.7 mph - N/A Rain Light Freezing Rain
5:17 PM 30.2 °F 20.2 °F 26.6 °F 86% 30.12 in 6.2 mi East 12.7 mph - N/A Rain Light Freezing Rain
5:45 PM 28.4 °F 17.0 °F 26.6 °F 93% 30.06 in 6.2 mi East 15.0 mph - N/A Rain Light Freezing Rain
6:00 PM 29 °F - 26 °F 82% 30.12 in 7 mi East 13.4 mph - -   Light Freezing Rain
6:14 PM 28.4 °F 16.6 °F 24.8 °F 86% 30.12 in - East 16.1 mph - N/A   Clear
6:15 PM 28.4 °F 16.6 °F 24.8 °F 86% 30.06 in - East 16.1 mph - N/A   Clear
6:45 PM 28.4 °F 18.0 °F 24.8 °F 86% 30.06 in - ENE 12.7 mph - N/A   Clear
7:00 PM 28 °F - 24 °F 78% 30.12 in 7 mi ENE 13.4 mph - - Rain Light Freezing Drizzle
7:15 PM 26.6 °F 15.7 °F 23.0 °F 86% 30.09 in - East 12.7 mph - N/A   Clear
7:45 PM 26.6 °F 15.2 °F 23.0 °F 86% 30.06 in - East 13.8 mph - N/A   Clear
8:00 PM 26 °F - 23 °F 83% 30.12 in 7 mi East 13.4 mph - -   Partly Cloudy
8:15 PM 26.6 °F 14.7 °F 23.0 °F 86% 30.09 in - East 15.0 mph - N/A   Clear
8:45 PM 26.6 °F 15.2 °F 23.0 °F 86% 30.09 in - East 13.8 mph - N/A   Clear
9:00 PM 26 °F - 22 °F 79% 30.14 in 7 mi East 13.4 mph - -   Partly Cloudy
9:45 PM 26.6 °F 15.7 °F 23.0 °F 86% 30.09 in 6.2 mi East 12.7 mph - N/A   Overcast
9:49 PM 26.6 °F 15.7 °F 23.0 °F 86% 30.15 in 6.2 mi East 12.7 mph - N/A Rain Light Freezing Rain
10:00 PM 26 °F - 22 °F 81% 30.14 in 9 mi East 13.4 mph - -   Partly Cloudy
10:45 PM 26.6 °F 16.2 °F 23.0 °F 86% 30.09 in 6.2 mi East 11.5 mph - N/A Rain Light Freezing Rain
10:48 PM 26.6 °F 16.2 °F 23.0 °F 86% 30.15 in 6.2 mi East 11.5 mph - N/A   Overcast
11:00 PM 26 °F - 22 °F 81% 30.14 in 9 mi East 11.2 mph - -   Light Freezing Rain
11:45 PM 24.8 °F 13.4 °F 21.2 °F 86% 30.09 in 6.2 mi East 12.7 mph - N/A   Overcast